[[{"header":{"parameterUnit":"m.s-1","parameterCategory":1,"la1":30.2991,"la2":30.254,"lo1":-89.0895,"lo2":-89.0444,"dy":0.0017,"dx":0.0017,"nx":28,"ny":28,"refTime":"2023-09-02T03:00:00:Z","depth":0,"parameterNumber":2,"parameterNumberName":"U-component_of_WINDS"},"data":[0,0,0,0,0,0,0,0,0,0,0,0,0,0,0,0,0,0,0,0,0,0,0,0,0,0,0,0,0,0,0,0,0,0,0,0,0,0,0,0,0,0,0,0,0,0,0,0,0,0,0,0,0,0,0,0,0,0,-5.4746,-5.4746,0,-5.4753,-5.4753,-5.4753,-5.4617,-5.4613,-5.4609,-5.4606,-5.4613,-5.4616,-5.462,0,0,0,0,0,0,0,0,0,0,0,0,0,-5.4615,-5.4618,-5.4746,-5.4746,-5.4746,-5.4753,-5.4753,-5.4753,-5.4617,-5.4613,-5.4609,-5.4604,-5.4612,-5.4616,-5.462,0,0,0,0,0,0,0,0,0,0,0,0,0,-5.4652,-5.4619,-5.4746,-5.468,-5.4674,-5.4753,-5.4753,-5.4753,-5.4618,-5.4613,-5.4607,-5.4602,-5.461,-5.4615,-5.4621,-5.4764,0,0,-5.4637,-5.464,0,0,0,0,0,0,0,0,-5.465,-5.4657,-5.4689,-5.4684,-5.4678,-5.4678,-5.4709,-5.4757,-5.462,-5.4639,-5.4606,-5.46,-5.4639,-5.4642,-5.4655,-5.4765,-5.4765,-5.4638,-5.4641,-5.4643,-5.4645,0,0,0,0,0,0,0,-5.4647,-5.4656,-5.4749,-5.469,-5.4683,-5.4649,-5.4648,-5.4717,-5.467,-5.4637,-5.4627,-5.463,-5.4635,-5.465,-5.4654,-5.4765,-5.4638,-5.4642,-5.4646,-5.4648,-5.4989,-5.4995,0,0,0,0,0,0,-5.4654,-5.4654,-5.4749,-5.4749,-5.465,-5.4656,-5.4655,-5.4684,-5.4669,-5.4661,-5.4635,-5.4624,-5.4644,-5.4648,-5.4654,-5.4817,-5.4643,-5.4648,-5.4651,-5.4983,-5.499,-5.4997,0,0,0,0,0,0,-5.4652,-5.4664,-5.4748,-5.4699,-5.4707,-5.4664,-5.4698,-5.4687,-5.4702,-5.4667,-5.4658,-5.4659,-5.4639,-5.4646,-5.4737,-5.4816,-5.4651,-5.4656,-5.4977,-5.4986,-5.4994,-5.5148,0,0,0,0,0,0,-5.4649,-5.4664,-5.4718,-5.4701,-5.471,-5.4832,-5.4702,-5.4691,-5.4712,-5.4697,-5.4687,-5.468,-5.4636,-5.473,-5.4742,-5.482,-5.466,-5.4969,-5.4981,-5.4991,-5.5136,-5.5161,-5.5183,0,0,0,0,0,-5.4644,-5.4762,-5.4721,-5.4734,-5.4777,-5.4837,-5.4842,-5.4788,-5.4719,-5.4772,-5.475,-5.4681,-5.4807,-5.474,-5.4753,-5.4834,-5.4964,-5.4977,-5.499,-5.5125,-5.5156,-5.5183,0,0,0,0,0,0,-5.4789,-5.4759,-5.4713,-5.4829,-5.4837,-5.4814,-5.488,-5.4823,-5.485,-5.4836,-5.4768,-5.4767,-5.4868,-5.4861,-5.4787,-5.4971,-5.4873,-5.4889,-5.4971,-5.5,-5.5023,-5.5021,-5.4664,0,0,0,0,0,-5.4835,-5.4886,-5.4856,-5.4962,-5.4968,-5.4924,-5.4948,-5.4906,-5.491,-5.4913,-5.4897,-5.4904,-5.4944,-5.4973,-5.5009,-5.5136,-5.513,-5.5198,-5.5222,-5.5241,-5.5255,-5.5318,-5.5347,-5.504,-5.504,-5.504,0,0,-5.4929,-5.4919,-5.4955,-5.499,-5.4991,-5.5044,-5.4927,-5.4989,-5.5027,-5.4922,-5.5005,-5.4995,-5.4998,-5.5107,-5.5154,-5.5104,-5.5339,-5.5258,-5.5274,-5.5276,-5.5334,-5.5364,-5.5389,-5.5049,-5.5047,-5.5046,0,0,-5.5127,-5.5126,-5.5211,-5.5215,-5.5217,-5.5187,-5.5208,-5.5194,-5.5182,-5.5265,-5.5186,-5.5232,-5.5304,-5.5309,-5.5321,-5.5521,-5.5457,-5.5535,-5.5656,-5.5719,-5.5743,-5.5764,-5.5832,-5.5857,-5.555,-5.555,-5.555,0,-5.5243,-5.532,-5.5263,-5.5329,-5.5346,-5.5254,-5.5339,-5.5345,-5.536,-5.5373,-5.5317,-5.5404,-5.5401,-5.5507,-5.5556,-5.5571,-5.559,-5.5534,-5.5745,-5.5765,-5.5784,-5.5847,-5.5873,-5.5559,-5.5558,-5.5557,-5.5556,0,-5.5461,-5.5517,-5.5586,-5.5601,-5.5626,-5.5702,-5.5654,-5.5687,-5.5644,-5.5619,-5.5704,-5.5697,-5.5728,-5.5751,-5.571,-5.5852,-5.582,-5.5757,-5.5655,-5.5823,-5.5881,-5.5906,-5.5572,-5.5569,-5.5566,-5.5564,0,0,-5.5748,-5.573,-5.5756,-5.5761,-5.5757,-5.5798,-5.587,-5.59,-5.5927,-5.5942,-5.5998,-5.6062,-5.6001,-5.6015,-5.5974,-5.603,-5.6184,-5.5958,-5.5957,-5.5996,-5.6336,-5.6381,-5.6411,-5.6144,-5.6149,-5.6152,-5.6335,0,-5.5937,-5.6056,-5.6006,-5.613,-5.6179,-5.6092,-5.6154,-5.6158,-5.6138,-5.6176,-5.6154,-5.6198,-5.6118,-5.6125,-5.6177,-5.6155,-5.6251,-5.6141,-5.6193,-5.6196,-5.619,-5.6442,-5.649,-5.6662,-5.6358,-5.6361,-5.6364,0,-5.6172,-5.6194,-5.6323,-5.6308,-5.6327,-5.6383,-5.6405,-5.6444,-5.6447,-5.6428,-5.6444,-5.639,-5.6458,-5.6361,-5.6453,-5.6379,-5.6398,-5.6391,-5.6396,-5.6395,-5.6287,-5.6443,-5.6716,-5.674,-5.64,-5.6398,-5.6395,0,-5.6362,-5.6425,-5.6509,-5.6516,-5.6503,-5.6544,-5.6541,-5.6538,-5.6559,-5.6579,-5.6592,-5.6621,-5.6636,-5.6659,-5.6614,-5.6549,-5.6711,-5.6611,-5.6695,-5.6696,-5.6729,-5.6726,-5.7004,-5.675,-5.6749,-5.6749,-5.6748,0,-5.6575,-5.6656,-5.6594,-5.6645,-5.6733,-5.6675,-5.6764,-5.6751,-5.675,-5.6796,-5.6725,-5.677,-5.671,-5.675,-5.6716,-5.6794,-5.6803,-5.6788,-5.6777,-5.6792,-5.6793,-5.6799,-5.6785,-5.6756,-5.6754,-5.6753,-5.6752,0,-5.6801,-5.6763,-5.6848,-5.6828,-5.6825,-5.6891,-5.6873,-5.6919,-5.6895,-5.6955,-5.6966,-5.6927,-5.697,-5.6928,-5.6969,-5.6946,-5.705,-5.7024,-5.7049,-5.7039,-5.7124,-5.7115,-5.7411,-5.7446,-5.7174,-5.7177,-5.7179,0,-5.6937,-5.6996,-5.6983,-5.7009,-5.7009,-5.7053,-5.7073,-5.702,-5.7044,-5.7051,-5.7096,-5.7133,-5.7158,-5.7231,-5.7206,-5.7236,-5.7208,-5.731,-5.7211,-5.7223,-5.7204,-5.7199,-5.7203,-5.7328,-5.7331,-5.7334,-5.7336,0,-5.7181,-5.7158,-5.719,-5.7216,-5.7243,-5.7261,-5.7273,-5.7299,-5.7243,-5.7274,-5.7316,-5.7336,-5.7377,-5.7413,-5.7436,-5.7432,-5.7374,-5.7368,-5.7388,-5.7401,-5.7411,-5.7402,-5.7098,-5.736,-5.7358,-5.7356,-5.7355,-5.7354,-5.7362,-5.741,-5.7407,-5.7445,-5.7449,-5.7462,-5.7503,-5.7484,-5.7518,-5.7546,-5.7513,-5.7565,-5.7565,-5.7589,-5.7592,-5.7631,-5.7588,-5.7618,-5.7625,-5.7632,-5.7642,-5.7409,-5.7636,-5.7635,-5.7634,-5.7634,-5.7633,0,-5.7598,-5.7592,-5.7628,-5.7646,-5.7676,-5.7621,-5.7632,-5.7659,-5.7705,-5.771,-5.7737,-5.7785,-5.782,-5.7799,-5.7828,-5.7863,-5.7837,-5.7872,-5.7866,-5.7866,-5.7681,-5.7659,-5.7892,-5.7892,-5.7892,-5.7892,-5.7892,-5.7892,-5.7724,-5.7801,-5.7779,-5.7857,-5.785,-5.7899,-5.7909,-5.792,-5.7924,-5.798,-5.8008,-5.7994,-5.7989,-5.8017,-5.8046,-5.8039,-5.8051,-5.8095,-5.8078,-5.7905,-5.7879,-5.7855,-5.7833,-5.8099,-5.81,-5.8259,-5.826,-5.8261]},{"header":{"parameterUnit":"m.s-1","parameterCategory":1,"la1":30.2991,"la2":30.254,"lo1":-89.0895,"lo2":-89.0444,"dy":0.0017,"dx":0.0017,"nx":28,"ny":28,"refTime":"2023-09-02T03:00:00:Z","depth":0,"parameterNumber":3,"parameterNumberName":"V-component_of_WINDS"},"data":[0,0,0,0,0,0,0,0,0,0,0,0,0,0,0,0,0,0,0,0,0,0,0,0,0,0,0,0,0,0,0,0,0,0,0,0,0,0,0,0,0,0,0,0,0,0,0,0,0,0,0,0,0,0,0,0,0,0,1.6672,1.6672,0,1.6658,1.6658,1.6658,1.6545,1.6542,1.654,1.6537,1.6523,1.6525,1.6528,0,0,0,0,0,0,0,0,0,0,0,0,0,1.6601,1.6603,1.6672,1.6672,1.6672,1.6658,1.6658,1.6658,1.6546,1.6542,1.6539,1.6536,1.6523,1.6525,1.6528,0,0,0,0,0,0,0,0,0,0,0,0,0,1.6614,1.6603,1.6672,1.6614,1.6609,1.6658,1.6658,1.6658,1.6546,1.6542,1.6538,1.6534,1.6522,1.6525,1.6528,1.6632,0,0,1.6538,1.654,0,0,0,0,0,0,0,0,1.6613,1.6617,1.6623,1.6618,1.6612,1.6599,1.6628,1.6649,1.6548,1.657,1.6537,1.6532,1.6552,1.6552,1.6559,1.6632,1.6631,1.6539,1.6541,1.6542,1.6543,0,0,0,0,0,0,0,1.6613,1.6617,1.6666,1.6623,1.6617,1.6589,1.6586,1.6631,1.6585,1.6568,1.656,1.656,1.6548,1.6556,1.6558,1.6631,1.6539,1.6542,1.6544,1.6545,1.6789,1.6793,0,0,0,0,0,0,1.662,1.6617,1.6667,1.6666,1.6602,1.6593,1.659,1.6608,1.6584,1.6576,1.6563,1.6554,1.6553,1.6554,1.6557,1.6678,1.6542,1.6545,1.6547,1.6785,1.679,1.6795,0,0,0,0,0,0,1.6619,1.6625,1.6667,1.6639,1.6642,1.6599,1.6619,1.661,1.6617,1.658,1.6571,1.658,1.6549,1.6552,1.6615,1.6676,1.6547,1.655,1.6779,1.6786,1.6792,1.692,0,0,0,0,0,0,1.6617,1.6626,1.6665,1.6641,1.6644,1.6726,1.6623,1.6612,1.6623,1.6612,1.6594,1.6587,1.6546,1.661,1.6618,1.6678,1.6552,1.6774,1.6782,1.679,1.691,1.693,1.6948,0,0,0,0,0,1.6615,1.6701,1.6667,1.6674,1.6692,1.6729,1.6731,1.6683,1.6629,1.6668,1.6644,1.6587,1.6668,1.6618,1.6625,1.6687,1.6769,1.678,1.679,1.6902,1.6926,1.6947,0,0,0,0,0,0,1.6733,1.6697,1.6659,1.674,1.6739,1.671,1.6758,1.6711,1.6724,1.6713,1.6653,1.665,1.6721,1.671,1.6655,1.6787,1.6709,1.6721,1.6792,1.6815,1.6833,1.6834,1.6555,0,0,0,0,0,1.6768,1.6802,1.6768,1.6843,1.6844,1.6802,1.6816,1.6779,1.6775,1.6774,1.6754,1.6753,1.6778,1.6796,1.6816,1.6908,1.6903,1.6955,1.6973,1.6989,1.7,1.7048,1.7071,1.6828,1.6828,1.6828,0,0,1.6842,1.6826,1.6851,1.6866,1.6861,1.6896,1.6802,1.6843,1.6869,1.678,1.6838,1.6824,1.6818,1.6896,1.6929,1.6889,1.7066,1.7002,1.7014,1.7017,1.7061,1.7084,1.7105,1.6835,1.6833,1.6832,0,0,1.6994,1.6986,1.7047,1.7044,1.7037,1.7008,1.7023,1.7002,1.699,1.7047,1.6981,1.7011,1.7055,1.7054,1.7059,1.7212,1.716,1.7221,1.7318,1.7366,1.7385,1.7402,1.7456,1.7477,1.7232,1.7232,1.7232,0,1.7086,1.7137,1.7085,1.7131,1.714,1.7061,1.7123,1.7122,1.7123,1.7131,1.7086,1.714,1.7131,1.7207,1.7245,1.7252,1.7267,1.7222,1.7386,1.7403,1.7417,1.7469,1.749,1.724,1.7239,1.7238,1.7237,0,1.7251,1.7288,1.7338,1.7341,1.7356,1.741,1.7365,1.7386,1.7349,1.7325,1.7384,1.737,1.7387,1.7403,1.7366,1.7475,1.745,1.7397,1.7317,1.7449,1.7496,1.7516,1.725,1.7247,1.7245,1.7243,0,0,1.7477,1.745,1.747,1.747,1.7457,1.7485,1.7535,1.7552,1.7572,1.7575,1.7616,1.7656,1.7606,1.7613,1.7575,1.7617,1.774,1.7559,1.7558,1.7593,1.7859,1.7899,1.7923,1.7706,1.7709,1.7712,1.7859,0,1.7623,1.7708,1.7662,1.7753,1.7787,1.7713,1.7757,1.7754,1.7734,1.7759,1.7736,1.7765,1.7698,1.7701,1.774,1.7717,1.7792,1.7706,1.7744,1.7746,1.7747,1.7947,1.799,1.813,1.7878,1.7881,1.7883,0,1.7805,1.7817,1.7911,1.7893,1.7905,1.7946,1.7957,1.7983,1.7978,1.796,1.7968,1.7921,1.7969,1.7891,1.7957,1.7899,1.7912,1.7903,1.7908,1.7909,1.7822,1.7955,1.8173,1.8194,1.7912,1.7909,1.7907,0,1.796,1.7999,1.8061,1.8064,1.8044,1.8074,1.8067,1.8058,1.8072,1.8082,1.809,1.8107,1.8116,1.813,1.8088,1.8035,1.8161,1.8078,1.8147,1.8148,1.8177,1.8175,1.84,1.8186,1.8185,1.8185,1.8184,0,1.8128,1.8189,1.8131,1.8169,1.8235,1.8182,1.8249,1.8234,1.8227,1.8261,1.8199,1.8232,1.8175,1.8203,1.8171,1.8231,1.8236,1.8223,1.8213,1.8228,1.823,1.8236,1.8225,1.819,1.8189,1.8188,1.8187,0,1.8313,1.8276,1.8338,1.8315,1.831,1.836,1.8339,1.8374,1.8349,1.8393,1.84,1.8362,1.8391,1.8352,1.8377,1.8356,1.8438,1.8414,1.844,1.8433,1.8504,1.8498,1.874,1.8769,1.8536,1.8539,1.8541,0,1.8423,1.8468,1.8449,1.8467,1.8464,1.8495,1.8508,1.8458,1.8474,1.8473,1.8508,1.8532,1.8549,1.86,1.8574,1.8594,1.857,1.8653,1.8572,1.8586,1.8571,1.8569,1.8573,1.867,1.8673,1.8675,1.8677,0,1.8621,1.8601,1.8623,1.8639,1.8657,1.8666,1.8672,1.869,1.8638,1.866,1.8689,1.8703,1.8729,1.8754,1.8767,1.8759,1.871,1.8703,1.872,1.8735,1.8748,1.8742,1.8485,1.8697,1.8695,1.8694,1.8693,1.8692,1.8772,1.8809,1.8801,1.8828,1.8827,1.8833,1.8865,1.8844,1.8868,1.8885,1.8855,1.8892,1.8887,1.8899,1.8898,1.8927,1.889,1.8915,1.8921,1.8928,1.8939,1.8744,1.8929,1.8928,1.8927,1.8927,1.8926,0,1.8967,1.8959,1.8984,1.8994,1.9015,1.8967,1.897,1.8991,1.9025,1.9024,1.9042,1.9077,1.9101,1.9078,1.9097,1.9125,1.9103,1.9132,1.9129,1.9129,1.897,1.8954,1.915,1.915,1.915,1.915,1.9149,1.9149,1.9071,1.9132,1.9111,1.917,1.9161,1.9198,1.9204,1.921,1.9209,1.925,1.927,1.9255,1.9245,1.9264,1.9284,1.9277,1.9287,1.9325,1.9309,1.9162,1.914,1.9119,1.9103,1.9327,1.9327,1.9465,1.9466,1.9467]}]]